Home > Weather > Dresden > Past weeks

Flag for Germany Past Weather in Dresden, Saxony, Germany — Yesterday and Last 2 Weeks

Now
72 °F

Sunny.


Feels Like: 74 °F
Forecast: 53 / 70 °F
Wind: 10 mph from South

Location: Dresden-Klotzsche

Current Time: Jul 2, 2016 at 9:28:29 AM

Latest Report: Jul 2, 2016 at 8:50 AM


Visibility: 10 mi

Pressure: 29.89 "Hg

Humidity: 73%

Dew Point: 63 °F

Location of DresdenLocation

Past Weather in Dresden — Graph

°F

Dresden Temperature Yesterday

Maximum temperature yesterday: 81 °F (at 3:50 PM)
Minimum temperature yesterday: 61 °F (at 1:20 AM)
Average temperature yesterday: 72 °F

High & Low Weather Summary for the Past Weeks

 TemperatureHumidityPressure
High91 °F (Jun 24, 4:50 PM)100% (Jun 17, 8:50 AM)30.27 "Hg (Jun 17, 8:50 AM)
Low52 °F (Jun 19, 5:20 AM)29% (Jun 24, 2:20 PM)29.53 "Hg (Jun 17, 8:20 AM)
Average67 °F71%30.04 "Hg
* Reported Jun 17 8:20 AM — Jul 2 8:20 AM, Dresden, Weather by CustomWeather, © 2016

Note: Actual official high and low records may vary slightly from our data, if they occured in-between our weather recording intervals... More about our weather records

Advertising

Dresden Weather History for the Previous 24 Hours

Scroll right to see more
 ConditionsComfort  
Time TempWeatherWind HumidityBarometerVisibility
8:20 AM
Sat, Jul 2
70 °FSunny.10 mph83%29.89 "Hg10 mi
7:50 AM70 °FSunny.7 mph83%29.89 "Hg10 mi
7:20 AM68 °FSunny.9 mph88%29.89 "Hg10 mi
6:50 AM66 °FPartly sunny.10 mph88%29.89 "HgN/A
6:20 AM63 °FLight rain. Partly sunny.13 mph94%29.92 "HgN/A
5:50 AM64 °FPassing clouds.3 mph83%29.92 "HgN/A
5:20 AM64 °FClear.2 mph83%29.92 "Hg10 mi
4:50 AM64 °FClear.5 mph83%29.92 "Hg10 mi
4:20 AM64 °FClear.5 mph83%29.95 "Hg10 mi
3:50 AM66 °FPassing clouds.5 mph78%29.95 "HgN/A
3:20 AM66 °FClear.3 mph73%29.95 "Hg10 mi
2:50 AM66 °FClear.3 mph73%29.95 "Hg10 mi
2:20 AM66 °FClear.3 mph78%29.95 "Hg10 mi
1:50 AM66 °FClear.6 mph78%29.98 "Hg10 mi
1:20 AM66 °FClear.6 mph78%29.98 "Hg10 mi
12:50 AM66 °FClear.7 mph73%29.98 "Hg10 mi
12:20 AM66 °FClear.7 mph73%29.98 "Hg10 mi
11:50 PM
Fri, Jul 1
68 °FClear.8 mph73%29.98 "Hg10 mi
11:20 PM70 °FClear.8 mph69%29.98 "Hg10 mi
10:50 PM70 °FClear.7 mph69%29.98 "Hg10 mi
10:20 PM72 °FPassing clouds.5 mph65%29.98 "HgN/A
9:50 PM73 °FSunny.6 mph61%29.98 "Hg10 mi
9:20 PM75 °FPassing clouds.3 mph54%29.98 "HgN/A
8:50 PM75 °FSunny.3 mph54%29.98 "Hg10 mi
8:20 PM77 °FSunny.2 mph51%29.95 "Hg10 mi
7:50 PM79 °FSunny.5 mph48%29.98 "Hg10 mi
7:20 PM79 °FPassing clouds.6 mph45%29.98 "HgN/A
6:50 PM79 °FSunny.7 mph45%29.98 "Hg10 mi
6:20 PM79 °FPassing clouds.9 mph42%29.98 "HgN/A
5:50 PM81 °FPassing clouds.8 mph39%29.98 "HgN/A
5:20 PM79 °FPassing clouds.6 mph42%29.98 "HgN/A
4:50 PM81 °FPassing clouds.8 mph39%29.98 "HgN/A
4:20 PM79 °FSunny.9 mph45%29.98 "Hg10 mi
3:50 PM81 °FSunny.9 mph42%29.98 "Hg10 mi
3:20 PM79 °FPassing clouds.12 mph42%29.98 "HgN/A
2:50 PM79 °FSunny.8 mph45%30.01 "Hg10 mi
2:20 PM79 °FPassing clouds.10 mph42%30.01 "HgN/A
1:50 PM79 °FPassing clouds.14 mph39%30.01 "HgN/A
1:20 PM79 °FPassing clouds.12 mph42%30.01 "HgN/A
12:50 PM77 °FSunny.10 mph44%30.01 "Hg10 mi
12:20 PM77 °FScattered clouds.10 mph51%30.04 "HgN/A
11:50 AM77 °FScattered clouds.9 mph47%30.04 "HgN/A
11:20 AM75 °FPassing clouds.9 mph54%30.04 "HgN/A
10:50 AM73 °FPassing clouds.12 mph57%30.04 "HgN/A
10:20 AM73 °FPassing clouds.9 mph57%30.04 "HgN/A
9:50 AM73 °FPassing clouds.8 mph57%30.04 "HgN/A
9:20 AM72 °FPassing clouds.7 mph61%30.04 "HgN/A
Weather by CustomWeather, © 2016

See weather overviewHow to use our weather pages